This demonstration page uses our WeatherBlox Daily Observations layout. Learn more.

Hourly Observations for November 21, 2018

Temp ( °F °C ) Dew Point ( °F °C ) Humidity (%) Winds ( mph kmh ) Pressure ( in mb ) Visibility ( mi km ) Precip ( " mm )
12:15 am 00:15 Clear 33 0.8 29 -1.7 84 84 W 5 7 30.21 1023 10 16.09344 0 0
12:35 am 00:35 Clear 31 -0.4 26 -3.3 81 81 W 5 7 30.24 1024 10 16.09344 0 0
12:55 am 00:55 Clear 30 -1.2 26 -3.4 85 85 W 3 6 30.24 1024 10 16.09344 0 0
1:15 am 01:15 Clear 32 0 26 -3.1 80 80 W 3 6 30.24 1024 10 16.09344 0 0
1:35 am 01:35 Clear 30 -1.2 26 -3.2 86 86 W 3 6 30.24 1024 10 16.09344 0 0
1:55 am 01:55 Clear 30 -1.2 25 -3.7 83 83 WNW 5 7 30.24 1024 10 16.09344 0 0
2:15 am 02:15 Clear 29 -1.5 25 -3.8 85 85 W 6 9 30.24 1024 10 16.09344 0 0
2:35 am 02:35 Clear 29 -1.6 25 -3.7 86 86 W 3 6 30.24 1024 10 16.09344 0 0
2:55 am 02:55 Clear 28 -2.2 25 -3.9 88 88 WNW 3 6 30.24 1024 10 16.09344 0 0
3:15 am 03:15 Clear 29 -1.9 24 -4.3 84 84 W 5 7 30.24 1024 10 16.09344 0 0
3:35 am 03:35 Clear 30 -1.1 26 -3.5 84 84 W 6 9 30.24 1024 10 16.09344 0 0
3:55 am 03:55 Clear 30 -1.1 24 -4.2 80 80 W 5 7 30.24 1024 10 16.09344 0 0
4:15 am 04:15 Clear 30 -1.2 26 -3.5 85 85 W 6 9 30.24 1024 10 16.09344 0 0
4:35 am 04:35 Clear 28 -2 24 -4.2 85 85 W 3 6 30.24 1024 10 16.09344 0 0
4:55 am 04:55 Clear 28 -2.1 25 -4.1 86 86 Calm 30.24 1024 10 16.09344 0 0
5:15 am 05:15 Clear 30 -1.2 25 -4 82 82 W 3 6 30.24 1024 10 16.09344 0 0
5:35 am 05:35 Clear 28 -2.1 24 -4.3 85 85 NW 3 6 30.24 1024 10 16.09344 0 0
5:55 am 05:55 Clear 28 -2 24 -4.2 85 85 NW 3 6 30.24 1024 10 16.09344 0 0
6:15 am 06:15 Clear 28 -2.5 24 -4.5 86 86 W 5 7 30.27 1025 10 16.09344 0 0
6:35 am 06:35 Clear 28 -2.2 24 -4.3 86 86 Calm 30.24 1024 10 16.09344 0 0
6:55 am 06:55 Clear 26 -3.3 23 -5.2 87 87 Calm 30.27 1025 10 16.09344 0 0
7:15 am 07:15 Clear 28 -2.5 25 -4 90 90 W 5 7 30.27 1025 10 16.09344 0 0
7:35 am 07:35 Sunny 26 -3.1 23 -5 87 87 W 5 7 30.27 1025 10 16.09344 0 0
7:55 am 07:55 Sunny 28 -2.5 25 -3.8 91 91 SW 5 7 30.27 1025 10 16.09344 0 0
8:15 am 08:15 Sunny 29 -1.5 26 -3.5 86 86 Calm 30.24 1024 10 16.09344 0 0
8:35 am 08:35 Sunny 31 -0.5 28 -2.3 88 88 Calm 30.24 1024 10 16.09344 0 0
8:55 am 08:55 Sunny 33 0.6 29 -1.8 84 84 WNW 3 6 30.24 1024 10 16.09344 0 0
9:15 am 09:15 Sunny 35 1.5 30 -1.1 83 83 W 6 9 30.21 1023 10 16.09344 0 0
9:35 am 09:35 Sunny 37 2.7 31 -0.7 79 79 W 5 7 30.21 1023 10 16.09344 0 0
9:55 am 09:55 Sunny 40 4.5 32 0.2 74 74 Calm 30.18 1022 10 16.09344 0 0
10:15 am 10:15 Sunny 43 6 33 0.7 69 69 Calm 30.18 1022 10 16.09344 0 0
10:35 am 10:35 Sunny 48 8.7 33 0.7 58 58 Calm 30.18 1022 10 16.09344 0 0
10:55 am 10:55 Sunny 50 10 33 0.7 53 53 WSW 3 6 30.15 1021 10 16.09344 0 0
11:15 am 11:15 Sunny 52 11.3 32 0.2 47 47 SW 5 7 30.12 1020 10 16.09344 0 0
11:35 am 11:35 Sunny 54 12.2 32 0.1 44 44 SW 7 11 30.12 1020 10 16.09344 0 0
11:55 am 11:55 Sunny 55 13 32 0 41 41 SW 8 13 30.12 1020 10 16.09344 0 0
12:15 pm 12:15 Sunny 56 13.2 32 0.1 41 41 SW 8 13 30.12 1020 10 16.09344 0 0
12:35 pm 12:35 Sunny 57 13.7 32 -0.2 39 39 SW 9 15 30.12 1020 10 16.09344 0 0
12:55 pm 12:55 Sunny 58 14.4 32 -0.2 37 37 SW 9 15 30.09 1019 10 16.09344 0 0
1:15 pm 13:15 Sunny 58 14.6 31 -0.7 35 35 WSW 8 13 30.09 1019 10 16.09344 0 0
1:35 pm 13:35 Sunny 59 15 31 -0.6 35 35 WSW 9 15 30.09 1019 10 16.09344 0 0
1:55 pm 13:55 Sunny 59 15.2 31 -0.4 35 35 WSW 8 13 30.09 1019 10 16.09344 0 0
2:15 pm 14:15 Sunny 60 15.5 32 -0.1 35 35 SW 8 13 30.09 1019 10 16.09344 0 0
2:35 pm 14:35 Sunny 60 15.5 32 0 35 35 SW 10 17 30.09 1019 10 16.09344 0 0
2:55 pm 14:55 Sunny 60 15.8 32 0 34 34 SW 8 13 30.09 1019 10 16.09344 0 0
3:15 pm 15:15 Sunny 60 15.7 32 0 35 35 SW 7 11 30.06 1018 10 16.09344 0 0
3:35 pm 15:35 Sunny 60 15.7 32 0 35 35 SSW 8 13 30.06 1018 10 16.09344 0 0
3:55 pm 15:55 Sunny 60 15.5 32 0 35 35 SW 7 11 30.06 1018 10 16.09344 0 0
4:15 pm 16:15 Sunny 59 15.2 32 0 36 36 SW 5 7 30.06 1018 10 16.09344 0 0
4:35 pm 16:35 Sunny 58 14.5 32 0 37 37 SSW 6 9 30.06 1018 10 16.09344 0 0
4:55 pm 16:55 Sunny 56 13.5 32 -0.2 39 39 SSW 7 11 30.06 1018 10 16.09344 0 0
5:15 pm 17:15 Sunny 54 12.3 31 -0.8 41 41 SSW 7 11 30.09 1019 10 16.09344 0 0
5:35 pm 17:35 Clear 53 11.7 30 -1 42 42 S 9 15 30.09 1019 10 16.09344 0 0
5:55 pm 17:55 Clear 49 9.3 30 -1.1 49 49 S 6 9 30.12 1020 10 16.09344 0 0
6:15 pm 18:15 Clear 49 9.2 29 -1.7 47 47 SSW 9 15 30.12 1020 10 16.09344 0 0
6:35 pm 18:35 Clear 46 8 28 -2 50 50 S 8 13 30.12 1020 10 16.09344 0 0
6:55 pm 18:55 Clear 48 8.7 29 -1.8 48 48 SSW 10 17 30.12 1020 10 16.09344 0 0
7:15 pm 19:15 Clear 47 8.5 30 -1.1 51 51 S 12 19 30.15 1021 10 16.09344 0 0
7:35 pm 19:35 Clear 47 8.1 30 -1.3 52 52 S 12 19 30.15 1021 10 16.09344 0 0
7:55 pm 19:55 Clear 46 7.5 29 -1.5 53 53 SSW 9 15 30.15 1021 10 16.09344 0 0
8:15 pm 20:15 Clear 44 6.8 29 -1.7 55 55 S 9 15 30.18 1022 10 16.09344 0 0
8:35 pm 20:35 Clear 44 6.5 29 -1.5 57 57 S 10 17 30.18 1022 10 16.09344 0 0
8:55 pm 20:55 Clear 43 6.2 30 -1 60 60 S 9 15 30.18 1022 10 16.09344 0 0
9:15 pm 21:15 Clear 42 5.4 30 -1.1 63 63 SSW 10 17 30.18 1022 10 16.09344 0 0
9:35 pm 21:35 Clear 41 4.9 30 -1 66 66 SSW 8 13 30.18 1022 10 16.09344 0 0
9:55 pm 21:55 Clear 40 4.4 30 -1.3 67 67 SSW 7 11 30.18 1022 10 16.09344 0 0
10:15 pm 22:15 Clear 40 4.5 29 -1.5 65 65 SSW 8 13 30.18 1022 10 16.09344 0 0
10:35 pm 22:35 Clear 40 4.3 29 -1.7 65 65 SSW 9 15 30.18 1022 10 16.09344 0 0
10:55 pm 22:55 Clear 40 4.6 28 -2 63 63 SSW 8 13 30.18 1022 10 16.09344 0 0
11:15 pm 23:15 Clear 41 4.9 28 -2.1 61 61 SSW 6 9 30.18 1022 10 16.09344 0 0
11:35 pm 23:35 Clear 40 4.3 28 -2.3 63 63 SW 8 13 30.18 1022 10 16.09344 0 0
11:55 pm 23:55 Clear 40 4.2 28 -2.4 63 63 SSW 6 9 30.18 1022 10 16.09344 0 0

Powered by AerisWeather